Regional Weather Roundup
Issued by NWS

Home | Current Version | Previous Version | Text Only | Print | Product List | Glossary Off
Versions: 1 2 3 4 5 6 7 8 9 10 11 12 13 14 15 16 17 18 19 20 21 22 23 24 25 26 27 28 29 30 31 32 33 34 35 36 37 38 39 40 41 42 43 44 45 46 47 48 49 50

000
ASUS43 KTOP 201959
RWRKS

WEATHER ROUNDUP FOR KANSAS
NATIONAL WEATHER SERVICE GOODLAND KS
300 PM CDT MON OCT 20 2014

NOTE:  "FAIR" INDICATES FEW OR NO CLOUDS BELOW 12,000 FEET WITH NO
SIGNIFICANT WEATHER AND/OR OBSTRUCTIONS TO VISIBILITY.

KSZ001>006-013>018-027>032-041>047-202100-
NORTHWEST KANSAS

CITY           SKY/WX    TMP DP  RH WIND       PRES   REMARKS
GOODLAND       SUNNY     75  42  30 S12       30.13F
HAYS           SUNNY     77  45  31 E8        30.07F
HILL CITY      SUNNY     79  40  24 SE8       30.08F
RUSSELL        SUNNY     79  46  31 NE6       30.05F
$$

KSZ061>065-074>080-084>089-202100-
SOUTHWEST KANSAS

CITY           SKY/WX    TMP DP  RH WIND       PRES   REMARKS
DODGE CITY     SUNNY     77  45  32 E13       30.09F
ELKHART          N/A     74  52  46 E13         N/A
GARDEN CITY    SUNNY     76  38  25 E12       30.10F
GREAT BEND     SUNNY     77  45  31 NE8       30.06F
LIBERAL        SUNNY     75  54  46 E14G22    30.10F
$$

KSZ066>073-081>083-090>101-202100-
SOUTHEAST KANSAS

CITY           SKY/WX    TMP DP  RH WIND       PRES   REMARKS
CHANUTE        SUNNY     77  54  44 N3        30.02F
COFFEYVILLE    SUNNY     76  59  55 VRB5      30.02F
HUTCHINSON     SUNNY     80  45  28 VRB7      30.05F
NEWTON         SUNNY     77  45  31 NE9       30.07F
PARSONS        SUNNY     77  57  50 CALM      30.03F
WICHITA INTL   SUNNY     80  46  30 NE6       30.03F
WICHITA JABRA  SUNNY     80  44  27 NE9       30.03F
WINFIELD       SUNNY     79  57  46 NE9       30.03F
$$

KSZ007>012-019>026-033>040-048>060-102>105-202100-
NORTHEAST KANSAS

CITY           SKY/WX    TMP DP  RH WIND       PRES   REMARKS
CONCORDIA      SUNNY     76  45  33 VRB3      30.07F
EMPORIA        SUNNY     77  47  34 N13       30.03F
LAWRENCE       SUNNY     75  47  36 MISG      30.04F
MANHATTAN      SUNNY     77  46  33 NE9       30.04F
OLATHE IND     SUNNY     73  48  41 N9        30.04F
OLATHE EXE     SUNNY     74  47  38 N7        30.03F
SALINA         SUNNY     78  49  35 N3        30.06F
TOPEKA BILLARD SUNNY     76  47  35 NE9       30.04F
TOPEKA FORBES  SUNNY     74  48  39 N5        30.04F
$$


USA.gov is the U.S. government's official web portal to all federal, state and local government web resources and services.